Terminal Aerodrome Forecast
Issued by NWS

Home | Current Version | Previous Version | Text Only | Print | Product List | Glossary On
Versions: 1 2 3 4 5 6 7 8 9 10 11 12 13 14 15 16 17 18 19 20 21 22 23 24 25
000
FTUS43 KILX 301755
TAFBMI
TAF
KBMI 301755Z 3018/3118 VRB03KT 4SM -RA BR BKN008
     FM302100 35010KT 4SM -RA BR OVC008
     FM302300 02016G26KT 3SM -RA BR OVC008
     FM310300 36016G26KT P6SM VCSH OVC008
     FM311100 36015KT P6SM OVC015=

USA.gov is the U.S. government's official web portal to all federal, state and local government web resources and services.